Weather observations for the past three days for
Ambler, Ambler Airport
Metric (Imperial)
Date Time (akdt) Wind (kph) Vis. (km) Weather Sky Cond. Temperature (ºC) Relative Humidity Wind Chill (°C) Heat Index (°C) Pressure Precipitation (cm)
Air Dwpt 6 hour altimeter (cm) sea level (mb) 1 hr 3 hr 6 hr
Max. Min.
21 07:56 NE 19 16.09 Fair CLR 14.4 5 53% 76.17 1015.6
21 06:56 NE 13 16.09 Fair CLR 12.8 4.4 57% 76.15 1015.7
21 05:56 Calm 16.09 Fair CLR 12.8 4.4 57% 76.12 1015.3
21 04:56 W 6 16.09 Fair CLR 10.6 4.4 66% 76.12 1015.2
21 03:56 W 6 16.09 Fair CLR 10.6 4.4 20.6 10 66% 76.12 1015.2
21 02:56 N 7 16.09 Fair CLR 13.3 3.9 53% 76.1 1014.9
21 01:56 SW 6 16.09 Fair CLR 13.9 3.9 51% 76.1 1014.8
21 00:56 N 9 16.09 A Few Clouds FEW095 16.1 3.9 44% 76.07 1014.5
20 23:56 N 9 16.09 A Few Clouds FEW110 17.8 3.3 38% 76.05 1014.2
20 22:56 N 15 16.09 Fair CLR 19.4 3.3 35% 76.07 1014.3
20 21:56 N 17 16.09 Fair CLR 20.6 4.4 24.4 20.6 35% 76.05 1014.3
20 20:56 NE 15 16.09 Fair CLR 21.1 7.8 42% 76.07 1014.4
20 19:56 NE 15 16.09 Fair CLR 21.7 8.9 44% 76.07 1014.6
20 18:56 NE 20 16.09 Fair CLR 20.6 7.8 44% 76.1 1014.9
20 17:56 NE 17 16.09 Mostly Cloudy BKN085 22.8 4.4 30% 76.1 1014.8
20 16:56 SW 13 16.09 A Few Clouds FEW080 24.4 5 29% 25 76.1 1014.9
20 15:56 Vrbl 6 16.09 Fair CLR 22.8 6.7 22.8 14.4 35% 76.15 1015.4
20 14:56 NW 11 16.09 Fair CLR 21.1 6.7 39% 76.2 1016.1
20 13:56 Vrbl 6 16.09 Fair CLR 20.6 7.8 44% 76.25 1016.7
20 12:56 Vrbl 6 16.09 Fair CLR 18.3 8.9 54% 76.28 1017.2
20 11:56 Calm 16.09 Fair CLR 17.2 8.9 58% 76.3 1017.4
20 10:56 S 7 16.09 Fair CLR 16.1 8.9 63% 76.3 1017.7
20 09:56 W 6 16.09 Fair CLR 15 9.4 15 11.7 69% 76.3 1017.7
20 08:56 W 6 16.09 A Few Clouds FEW120 13.3 9.4 77% 76.33 1017.8
20 07:56 W 7 16.09 Light Rain FEW046 SCT075 OVC095 12.2 9.4 83% 76.33 1017.9
20 06:56 W 6 16.09 Overcast OVC110 12.2 8.3 77% 76.33 1017.9
20 05:56 Calm 16.09 Overcast OVC110 12.8 8.3 74% 76.3 1017.7
20 04:56 W 7 16.09 Overcast OVC120 13.3 8.3 72% 76.3 1017.5
20 03:56 NW 9 16.09 Fair CLR 13.3 8.3 18.9 12.2 72% 76.28 1017.4
20 02:56 NW 7 16.09 Fair CLR 14.4 7.2 62% 76.28 1017.3
20 01:56 Calm 16.09 Fair CLR 14.4 6.7 60% 76.28 1017.2
20 00:56 N 6 16.09 A Few Clouds FEW085 12.8 7.8 72% 76.25 1017.0
19 23:56 Calm 16.09 Fair CLR 15 8.9 67% 76.25 0.0
19 22:56 N 6 16.09 Fair CLR 18.3 8.9 54% 76.25 0.0
19 21:56 N 17 16.09 Partly Cloudy FEW070 SCT100 18.9 7.8 22.2 18.9 49% 76.25 0.0
19 20:56 W 13 16.09 Fair CLR 21.1 5.6 37% 76.2 0.0
19 19:56 W 11 G 30 16.09 Partly Cloudy SCT095 21.1 6.1 38% 76.17 0.0
19 17:56 Vrbl 6 16.09 A Few Clouds FEW070 21.7 7.2 39% 76.2 0.0
19 16:56 SW 6 16.09 Fair CLR 20 7.2 44% 76.23 0.0
19 15:56 S 6 16.09 Fair CLR 20 6.7 42% 76.23 0.0
19 14:56 Vrbl 7 16.09 Fair CLR 21.1 7.8 42% 76.25 0.0
19 13:56 Vrbl 6 16.09 A Few Clouds FEW043 19.4 9.4 53% 76.25 0.0
19 12:56 Vrbl 7 16.09 NULL NULL 19.4 10 55% 76.25 0.0
19 11:56 Vrbl 7 16.09 Overcast OVC110 17.2 10 63% 76.23 1016.6
19 10:56 Vrbl 9 16.09 Overcast BKN100 OVC120 16.7 10 65% 76.23 1016.5
19 09:56 Vrbl 6 16.09 Overcast OVC100 15 11.1 16.1 10.6 78% 76.2 1016.4
19 08:56 Vrbl 6 16.09 Mostly Cloudy BKN055 16.1 10.6 70% 76.17 1015.9
19 07:56 NE 9 16.09 Fair CLR 14.4 10 75% 76.15 1015.4
19 06:56 NE 7 16.09 Fair CLR 12.8 10 83% 76.12 1015.2
19 05:56 N 9 16.09 Fair CLR 12.2 9.4 83% 76.07 1014.6
19 04:56 N 6 16.09 Mostly Cloudy BKN080 BKN120 11.1 9.4 89% 76.07 1014.5
19 03:56 NE 13 16.09 Mostly Cloudy BKN090 12.2 10 16.1 11.7 87% 76.02 1013.9
19 02:56 NE 7 16.09 A Few Clouds FEW110 11.7 10 89% 76.02 1013.9
19 01:56 NE 11 16.09 Mostly Cloudy SCT065 BKN085 12.2 10 87% 75.97 1013.3
19 00:56 NE 11 16.09 Fair CLR 12.8 10.6 87% 75.95 1012.7
18 23:56 NE 9 16.09 Fair CLR 13.9 11.1 83% 75.9 1012.2
18 22:56 NE 17 16.09 Fair CLR 14.4 11.7 84% 75.87 1011.7
18 21:56 NE 13 16.09 Fair CLR 16.1 12.8 18.9 14.4 81% 75.84 1011.5 0.25
18 20:56 N 13 16.09 Overcast OVC090 15 12.8 87% 75.82 1011.3 0.15
18 19:56 S 11 G 28 9.66 Rain FEW031 BKN046 OVC055 15.6 11.1 75% 75.84 1011.5 0.1
18 18:56 NE 15 16.09 Overcast OVC044 16.7 12.2 75% 75.79 1010.8
18 17:56 Vrbl 7 16.09 Overcast OVC042 17.2 11.1 68% 75.77 1010.4
18 16:56 NE 9 16.09 Light Rain FEW032 OVC039 15.6 11.1 75% 75.77 1010.6
18 15:56 SE 19 G 33 16.09 A Few Clouds FEW043 18.9 11.1 19.4 11.7 61% 75.77 1010.4
18 14:56 SE 15 16.09 A Few Clouds FEW048 18.3 10.6 61% 75.77 1010.6
18 13:56 SE 15 16.09 Mostly Cloudy BKN060 BKN085 17.8 7.8 52% 75.79 1010.7
18 12:56 N 9 16.09 Overcast OVC070 16.1 9.4 65% 75.79 1010.7
18 11:56 NE 7 16.09 Overcast OVC065 13.3 8.3 72% 75.82 1011.0
18 10:56 SE 7 16.09 Overcast OVC095 12.8 7.2 69% 75.82 1011.2
18 09:56 Calm 16.09 A Few Clouds FEW095 11.7 8.3 11.7 7.8 80% 75.82 1011.0
18 08:56 NE 7 16.09 Fair CLR 10.6 7.8 83% 75.82 1011.0
Date Time (akdt) Wind (kph) Vis. (km) Weather Sky Cond. Air Dwpt Max. Min. Relative Humidity Wind Chill (°C) Heat Index (°C) altimeter (cm) sea level (mb) 1 hr 3 hr 6 hr
6 hour
Temperature (ºC) Pressure Precipitation (cm)